{"data":{"norad_id":52612,"epoch":"2026-05-24T16:25:57.050976Z","epoch_age_seconds":102555,"freshness":"FRESH","line1":"1 52612U 22052Q   26144.68468809 -.00000015  00000+0  17170-4 0  9999","line2":"2 52612  53.2147 297.9662 0001402  87.6394 272.4758 15.08839761222330","mean_motion":15.08839761,"eccentricity":0.0001402,"inclination_deg":53.2147,"raan_deg":297.9662,"arg_perigee_deg":87.6394,"mean_anomaly_deg":272.4758,"bstar":1.717e-5,"rev_number":22233,"period_min":95.437569795061,"perigee_km":538.77423255863,"apogee_km":540.71400642454,"semimajor_km":6917.8811194916,"source":"CELESTRAK","updated_at":"2026-05-25T13:38:17.199836Z"}}